Location: B�hl
(48.6968°N, 8.1352°E)
Time: 08:47:09
(UTC+00:00)

ATLAS CENTAUR R/B - Pass Details

Date: 08 March 2021
Orbit: 475 x 670 km, 64.7° (Epoch: 30 March)

Event Time Altitude Azimuth Distance (km) Brightness Sun altitude
Rises 18:30:43 0° 246° (WSW) 2,519 5.8 -12.1°
Reaches altitude 10° 18:33:01 10° 257° (WSW) 1,645 5.0 -12.5°
Maximum altitude 18:36:16 29° 320° (NW) 901 2.9 -13.0°
Drops below altitude 10° 18:39:35 10° 23° (NNE) 1,685 3.7 -13.5°
Enters shadow 18:41:40 - 34° (NNE) 2,479 4.4 -13.9°
